Tracking 30685 objects as of 19-Jun-2025
HD Live streaming from Space Station
objects crossing your sky now

STARLINK-32013

Track STARLINK-32013 now!
10-day predictions
STARLINK-32013 is classified as:


NORAD ID: 60103
Int'l Code: 2024-117N
Perigee: 481.6 km
Apogee: 483.1 km
Inclination: 53.2 °
Period: 94.1 minutes
Semi major axis: 6853 km
RCS: Unknown
Launch date: June 23, 2024
Source: United States (US)
Launch site: AIR FORCE EASTERN TEST RANGE (AFETR)
Your satellite tracking list
Your tracking list is empty




NASA's NSSDC Master Catalog

Two Line Element Set (TLE):
1 60103U 24117N   25169.74888407 -.00000744  00000-0 -13017-4 0  9997
2 60103  53.1591 183.2668 0001102  90.5203 269.5924 15.30193125 56427
Source of the keplerian elements: AFSPC